Find Starlink 32789

NORAD ID: 62529 Int'l Des: 2025-004 Owner: SPXS Country: US Constellation: starlink operational
LEOCIRCULAR

实时位置

正在加载3D地球...

关于 Starlink 32789

正在加载描述...

即将过境

Passes for default location (London). Set your location on the main map for personalized predictions.

高度历史

Loading altitude history...

两行轨道根数

1 62529U 25004U 26125.74791846 .00026012 00000-0 95042-3 0 9991
2 62529 43.0024 257.7465 0001317 260.8854 99.1848 15.27615109 75187
Epoch: May 5, 2026 • Age: 7 hours

当前状态

高度 485.8 km
速度 7.63 km/s
星下点 38.10°N, 81.43°E
发射日期 Jan 8, 2025
运行时间 1.3 years
类型 internet

技术详情

分类 Payload
质量 730.00 kg
干质量 700.00 kg
总质量 730.00 kg
长度 0.30 m
直径 4.10 m
跨度 29.00 m
形状 Box + pan
制造商 SPXS
平台类型 Starlink V2M
阶段状态 In Orbit
所有者/国家 SPXS/US

Most Searched